Location: Newark
(39.5667°N, 8.9833°E)
Time: 00:30:14
(UTC+00:00)

Tiros 1 despin weight - All Passes

Search period start: 16 October 2019 00:00
Search period end: 26 October 2019 00:00
Orbit: 594 x 643 km, 48.2° (Epoch: 15 October)

Date Brightness Start Highest point End Pass type
(mag) Time Alt. Az. Time Alt. Az. Time Alt. Az.
16 Oct - 00:54:23 10° SSW 00:58:43 40° SE 01:03:06 10° ENE night (unlit)
16 Oct - 02:35:41 10° W 02:40:16 51° NNW 02:44:51 10° NE visible
16 Oct - 04:18:30 10° WNW 04:22:34 28° N 04:26:38 10° ENE visible
16 Oct - 06:00:40 10° NW 06:05:02 37° NNE 06:09:22 10° E daylight
16 Oct - 07:42:14 10° WNW 07:46:53 70° SW 07:51:27 10° SE daylight
16 Oct - 09:25:50 10° WSW 09:27:47 12° SW 09:29:42 10° SSW daylight
16 Oct - 23:31:51 10° SSE 23:34:13 14° SE 23:36:37 10° E night (unlit)
17 Oct - 01:10:32 10° SW 01:15:11 74° SE 01:19:54 10° ENE visible
17 Oct - 02:52:43 10° W 02:57:05 36° NNW 03:01:27 10° NE visible
17 Oct - 04:35:28 10° NW 04:39:33 28° N 04:43:37 10° ENE visible
17 Oct - 06:17:14 10° NW 06:21:51 53° NNE 06:26:23 10° ESE daylight
17 Oct - 07:59:03 10° WNW 08:03:20 37° SW 08:07:33 10° SSE daylight
17 Oct - 23:46:33 10° SSW 23:50:29 27° SE 23:54:27 10° ENE night (unlit)
18 Oct - 01:27:09 10° WSW 01:31:48 66° NNW 01:36:30 10° NE visible
18 Oct - 03:09:50 10° WNW 03:13:59 30° N 03:18:08 10° NE visible
18 Oct - 04:52:14 10° NW 04:56:29 33° NNE 05:00:42 10° ENE visible
18 Oct - 06:33:49 10° WNW 06:38:32 86° NNE 06:43:10 10° ESE daylight
18 Oct - 08:16:21 10° W 08:19:39 19° SW 08:22:53 10° S daylight
19 Oct - 00:02:21 10° SW 00:06:52 52° SE 00:11:26 10° ENE night (unlit)
19 Oct - 01:44:04 10° W 01:48:33 43° NNW 01:53:04 10° NE visible
19 Oct - 03:26:53 10° WNW 03:30:57 28° N 03:35:00 10° ENE visible
19 Oct - 05:08:52 10° NW 05:13:22 43° NNE 05:17:48 10° E visible
19 Oct - 06:50:30 10° WNW 06:55:03 53° SW 06:59:33 10° SE daylight
19 Oct - 22:39:04 10° S 22:42:17 19° SE 22:45:31 10° E night (unlit)
20 Oct - 00:18:43 10° WSW 00:23:24 88° NNW 00:28:07 10° ENE night (unlit)
20 Oct - 02:01:10 10° WNW 02:05:24 33° NNW 02:09:41 10° NE visible
20 Oct - 03:43:46 10° NW 03:47:55 30° N 03:52:03 10° ENE visible
20 Oct - 05:25:26 10° NW 05:30:06 64° NNE 05:34:44 10° ESE daylight
20 Oct - 07:07:27 10° WNW 07:11:26 28° SW 07:15:23 10° SSE daylight
20 Oct - 22:54:21 10° SSW 22:58:35 36° SE 23:02:52 10° ENE night (unlit)
21 Oct - 00:35:29 10° WSW 00:40:03 54° NNW 00:44:41 10° NE night (unlit)
21 Oct - 02:18:15 10° WNW 02:22:21 29° N 02:26:26 10° NE visible
21 Oct - 04:00:28 10° NW 04:04:49 36° NNE 04:09:09 10° E visible
21 Oct - 05:42:01 10° WNW 05:46:43 76° SW 05:51:22 10° SE daylight
21 Oct - 07:25:13 10° W 07:27:42 14° SW 07:30:09 10° SSW daylight
21 Oct - 21:32:19 10° SSE 21:34:08 12° SE 21:35:58 10° ESE night (unlit)
21 Oct - 23:10:26 10° SW 23:15:01 68° SE 23:19:41 10° ENE night (unlit)
22 Oct - 00:52:29 10° W 00:56:51 38° NNW 01:01:16 10° NE night (unlit)
22 Oct - 02:35:14 10° WNW 02:39:19 28° N 02:43:23 10° ENE visible
22 Oct - 04:17:03 10° NW 04:21:39 50° NNE 04:26:11 10° E visible
22 Oct - 05:58:48 10° WNW 06:03:12 41° SW 06:07:33 10° SSE daylight
22 Oct - 21:46:38 10° S 21:50:21 25° SE 21:54:08 10° E night (unlit)
22 Oct - 23:26:58 10° WSW 23:31:37 71° NNW 23:36:19 10° NE night (unlit)
23 Oct - 01:09:36 10° WNW 01:13:45 30° N 01:17:56 10° NE night (unlit)
23 Oct - 02:52:02 10° NW 02:56:16 32° N 03:00:28 10° ENE visible
23 Oct - 04:33:37 10° WNW 04:38:20 79° NNE 04:43:01 10° ESE visible
23 Oct - 06:15:58 10° W 06:19:32 21° SW 06:23:03 10° S daylight
23 Oct - 22:02:18 10° SW 22:06:42 47° SE 22:11:11 10° ENE night (unlit)
23 Oct - 23:43:52 10° W 23:48:20 46° NNW 23:52:52 10° NE night (unlit)
24 Oct - 01:26:39 10° WNW 01:30:42 28° N 01:34:47 10° ENE visible
24 Oct - 03:08:41 10° NW 03:13:08 41° NNE 03:17:34 10° E visible
24 Oct - 04:50:16 10° WNW 04:54:54 59° SW 04:59:29 10° SE visible
24 Oct - 06:35:05 10° WSW 06:35:43 10° SW 06:36:21 10° SW daylight
24 Oct - 20:39:18 10° S 20:42:10 17° SE 20:45:05 10° E night (unlit)
24 Oct - 22:18:36 10° SW 22:23:13 86° SE 22:27:54 10° ENE night (unlit)
25 Oct - 00:00:56 10° W 00:05:10 34° NNW 00:09:28 10° NE night (unlit)
25 Oct - 01:43:33 10° NW 01:47:40 29° N 01:51:47 10° ENE visible
25 Oct - 03:25:15 10° NW 03:29:54 60° NNE 03:34:32 10° ESE visible
25 Oct - 05:07:10 10° WNW 05:11:18 31° SW 05:15:25 10° SSE visible
25 Oct - 20:54:22 10° SSW 20:58:27 32° SE 21:02:35 10° ENE night (unlit)
25 Oct - 22:35:18 10° WSW 22:39:51 58° NNW 22:44:29 10° NE night (unlit)
